Content
SEND FEEDBACK

Daily
Averages
Monthly
Summary
United States of America

FAYETTEVILLE, TENNESSEE


Home > North America > United States > Tennessee
Elevation: 700 feet     Latitude: 35 10N     Longitude: 086 33W

WEATHER
 
SELECT A DAY
Number of Records: 298,179;   Date Range: 4/22/02 - 8/12/14
 
SHARE

PRINT THIS DATA

[ ← Previous Day ]
WEATHER ALMANAC - JANUARY 26, 2014
[ Next Day → ]
[ °C ]   °F
Weather ElementAverageHighLow
Temperature41.7 °F55.4 °F (12:35 pm)21.2 °F (4:15 am)
Dewpoint20.5 °F23 °F (4:55 pm)17.6 °F (1:35 am)
Humidity47.8 %86 % (4:15 am)25 % (12:35 pm)
Barometer29.90 in29.98 in (12:55 am)29.82 in (11:15 pm)
Wind Speed7.3 mph24.2 mph (12:55 pm)
Wind Gust28.8 mph (11:35 am)
Weather ElementAverage
Visibility10 mi
Wind DirectionSE (136.1 °)

Weather ElementTotal
Precipitation---
Heating Degree Days26.7 (Base 65)
Averaged from 71 records on January 26, 2014
WEATHER CONDITIONS BREAKOUT
WIND DIRECTION BREAKOUT
WEATHER BY HOUR - JANUARY 26, 2014
[ °C ]   °F
Local TimeTemperatureDewpointHumidityBarometerVisibilityWind DirectionWind SpeedGust SpeedPrecipitationEventsConditions
12:35 AM30.2 °F19.4 °F64 %29.97 in10.0 miCalmClear
12:55 AM30.2 °F19.4 °F64 %29.98 in10.0 miNNE (30°)4.6 mphClear
1:15 AM28.4 °F19.4 °F69 %29.98 in10.0 miCalmClear
1:35 AM28.4 °F17.6 °F64 %29.98 in10.0 miCalmClear
1:55 AM24.8 °F17.6 °F74 %29.97 in10.0 miCalmClear
2:15 AM26.6 °F19.4 °F74 %29.97 in10.0 miCalmClear
2:35 AM24.8 °F19.4 °F80 %29.97 in10.0 miCalmClear
2:55 AM23.0 °F17.6 °F80 %29.97 in10.0 miCalmClear
3:15 AM23.0 °F17.6 °F80 %29.97 in10.0 miCalmClear
3:35 AM23.0 °F17.6 °F80 %29.96 in10.0 miCalmClear
3:55 AM23.0 °F17.6 °F80 %29.95 in10.0 miCalmClear
4:15 AM21.2 °F17.6 °F86 %29.95 in10.0 miCalmClear
4:35 AM21.2 °F17.6 °F86 %29.95 in10.0 miCalmClear
4:55 AM23.0 °F17.6 °F80 %29.95 in10.0 miCalmClear
5:15 AM23.0 °F19.4 °F86 %29.95 in10.0 miCalmClear
5:35 AM23.0 °F17.6 °F80 %29.94 in10.0 miCalmClear
5:55 AM23.0 °F17.6 °F80 %29.95 in10.0 miCalmClear
6:15 AM23.0 °F19.4 °F86 %29.94 in10.0 miSE (140°)3.5 mphClear
6:35 AM23.0 °F17.6 °F80 %29.94 in10.0 miSE (140°)3.5 mphClear
6:55 AM23.0 °F19.4 °F86 %29.94 in10.0 miSE (140°)3.5 mphClear
7:15 AM26.6 °F19.4 °F74 %29.95 in10.0 miSSE (150°)3.5 mphClear
7:35 AM30.2 °F19.4 °F64 %29.95 in10.0 miSSE (150°)3.5 mphClear
7:55 AM32.0 °F19.4 °F60 %29.96 in10.0 miSE (140°)4.6 mphClear
8:15 AM33.8 °F19.4 °F56 %29.95 in10.0 miSE (130°)4.6 mphClear
8:35 AM33.8 °F21.2 °F60 %29.94 in10.0 miSE (130°)5.8 mphClear
8:55 AM35.6 °F21.2 °F56 %29.95 in10.0 miSSE (160°)4.6 mphClear
9:15 AM39.2 °F21.2 °F49 %29.94 in10.0 miSouth (180°)6.9 mphClear
9:35 AM42.8 °F21.2 °F42 %29.94 in10.0 miSouth (190°)15.0 mph18.4 mphClear
9:55 AM42.8 °F21.2 °F42 %29.94 in10.0 miSouth (190°)12.7 mphClear
10:15 AM44.6 °F21.2 °F39 %29.95 in10.0 miSSW (200°)9.2 mphClear
10:35 AM46.4 °F21.2 °F37 %29.94 in10.0 miSSW (200°)10.4 mphClear
10:55 AM50.0 °F21.2 °F32 %29.94 in10.0 miSSW (200°)16.1 mph24.2 mphClear
11:15 AM51.8 °F19.4 °F28 %29.93 in10.0 miSSW (210°)18.4 mph21.9 mphClear
11:35 AM51.8 °F19.4 °F28 %29.92 in10.0 miSSW (210°)21.9 mph28.8 mphClear
11:55 AM53.6 °F19.4 °F26 %29.91 in10.0 miSSW (200°)18.4 mph23.0 mphClear
12:15 PM53.6 °F19.4 °F26 %29.89 in10.0 miSSW (210°)16.1 mph25.3 mphClear
12:35 PM55.4 °F19.4 °F25 %29.88 in10.0 miSW (230°)13.8 mph20.7 mphClear
12:55 PM55.4 °F19.4 °F25 %29.87 in10.0 miSSW (210°)24.2 mph27.6 mphClear
1:15 PM55.4 °F19.4 °F25 %29.87 in10.0 miSSW (210°)23.0 mph28.8 mphClear
1:35 PM55.4 °F19.4 °F25 %29.86 in10.0 miSSW (210°)19.6 mph26.5 mphClear
1:55 PM55.4 °F19.4 °F25 %29.84 in10.0 miSSW (200°)18.4 mph21.9 mphClear
2:15 PM55.4 °F19.4 °F25 %29.84 in10.0 miSW (220°)18.4 mph26.5 mphClear
2:35 PM55.4 °F19.4 °F25 %29.84 in10.0 miSSW (210°)15.0 mph19.6 mphClear
2:55 PM55.4 °F19.4 °F25 %29.83 in10.0 miSouth (180°)15.0 mph23.0 mphClear
3:15 PM53.6 °F19.4 °F26 %29.83 in10.0 miSouth (190°)13.8 mph18.4 mphClear
3:35 PM53.6 °F21.2 °F28 %29.83 in10.0 miSSW (200°)9.2 mphClear
3:55 PM53.6 °F21.2 °F28 %29.83 in10.0 miSouth (190°)17.3 mph21.9 mphClear
4:15 PM51.8 °F21.2 °F30 %29.83 in10.0 miSSW (210°)16.1 mphClear
4:35 PM51.8 °F21.2 °F30 %29.83 in10.0 miSouth (180°)9.2 mphClear
4:55 PM51.8 °F23.0 °F33 %29.84 in10.0 miSouth (190°)8.1 mphClear
5:15 PM51.8 °F21.2 °F30 %29.84 in10.0 miSouth (170°)5.8 mphClear
5:35 PM50.0 °F23.0 °F35 %29.84 in10.0 miSouth (190°)6.9 mphClear
5:55 PM50.0 °F23.0 °F35 %29.84 in10.0 miSouth (190°)6.9 mphClear
6:15 PM46.4 °F23.0 °F40 %29.85 in10.0 miSouth (170°)4.6 mphClear
6:35 PM46.4 °F23.0 °F40 %29.85 in10.0 miSSE (160°)3.5 mphScattered Clouds
6:55 PM46.4 °F23.0 °F40 %29.85 in10.0 miSouth (190°)3.5 mphOvercast
7:15 PM48.2 °F23.0 °F37 %29.85 in10.0 miSouth (170°)4.6 mphMostly Cloudy
7:35 PM50.0 °F23.0 °F35 %29.85 in10.0 miSouth (170°)4.6 mphMostly Cloudy
7:55 PM50.0 °F23.0 °F35 %29.86 in10.0 miSouth (170°)5.8 mphMostly Cloudy
8:15 PM50.0 °F23.0 °F35 %29.85 in10.0 miSSE (160°)4.6 mphMostly Cloudy
8:35 PM50.0 °F23.0 °F35 %29.85 in10.0 miSouth (170°)4.6 mphOvercast
8:55 PM50.0 °F23.0 °F35 %29.85 in10.0 miSSE (160°)4.6 mphOvercast
9:15 PM50.0 °F23.0 °F35 %29.84 in10.0 miSouth (170°)5.8 mphMostly Cloudy
9:35 PM50.0 °F23.0 °F35 %29.83 in10.0 miSE (140°)4.6 mphMostly Cloudy
9:55 PM50.0 °F23.0 °F35 %29.84 in10.0 miSSE (160°)5.8 mphMostly Cloudy
10:15 PM51.8 °F23.0 °F33 %29.83 in10.0 miSouth (170°)6.9 mphOvercast
10:35 PM50.0 °F23.0 °F35 %29.83 in10.0 miSouth (170°)4.6 mphScattered Clouds
10:55 PM50.0 °F23.0 °F35 %29.83 in10.0 miSSE (150°)3.5 mphScattered Clouds
11:15 PM50.0 °F23.0 °F35 %29.82 in10.0 miSSE (160°)6.9 mphScattered Clouds
11:35 PM51.8 °F21.2 °F30 %29.82 in10.0 miSSE (160°)6.9 mphMostly Cloudy
11:55 PM51.8 °F23.0 °F33 %29.83 in10.0 miSouth (180°)4.6 mphOvercast
Hourly data recorded from KMDQ, located miles away from Fayetteville, Tennessee







STORIES FROM OUR PARTNERS